139  
ASUS44 KOHX 081015  
RWROHX  
MIDDLE TENNESSEE HOURLY WEATHER ROUNDUP  
NATIONAL WEATHER SERVICE NASHVILLE TN  
400 AM CST THU DEC 08 2022  
 
NOTE: "FAIR" INDICATES FEW OR NO CLOUDS BELOW 12,000 FEET WITH  
NO SIGNIFICANT WEATHER AND/OR S TO VISIBILITY
.  
 
* THESE REPORTS ARE NOT UNDER NWS QUALITY CONTROL AND MAY NOT  
REPORT WEATHER SUCH AS PRECIPITATION AND FOG.
 
 
 
TNZ005>011-023>034-057-059-062>066-078-080-081100   
..NORTHERN MIDDLE TENNESSEE
 
 
 
CITY SKY/WX TMP DP RH WIND PRES REMARKS
 
CLARKSVILLE HVY RAIN 52 49 89 NE10 30.19F FOG  
CROSSVILLE FOG 56 56 100 CALM 30.23F VSB 1/4  
DICKSON CLOUDY 52 52 100 E5G12 30.17F FOG  
GALLATIN CLOUDY 55 55 100 N6 30.24F FOG  
LEBANON CLOUDY 55 55 100 N5 30.19F FOG  
LIVINGSTON FOG 55 55 100 NE5 30.21F VSB 0  
NASHVILLE LGT RAIN 55 53 93 N6 30.22F FOG  
PORTLAND FOG 54 52 94 N6 30.22F VSB 0  
SMYRNA LGT RAIN 55 54 94 NW3 30.23S FOG  
SPARTA FOG 55 55 100 CALM 30.20F VSB 1/4  
SPRINGFIELD FOG 52 52 100 NE6 30.21F VSB 3/4  
WEST NASHVILLE LGT RAIN 54 54 100 CALM 30.19F  

 
TNZ056-058-060-061-075>077-079-093>097-081100   
..SOUTHERN MIDDLE TENNESSEE
 
 
 
CITY SKY/WX TMP DP RH WIND PRES REMARKS
 
COLUMBIA CLOUDY 59 59 100 E7 30.17F FOG  
FAYETTEVILLE CLOUDY 64 64 100 S6 30.20F FOG  
LAWRENCEBURG FOG 61 61 100 CALM 30.18F VSB 0  
LEWISBURG FOG 57 57 100 CALM 30.20R VSB 1  
MCMINNVILLE CLOUDY 59 57 94 NE3 30.19F FOG  
PULASKI FOG 63 63 100 CALM 30.18F VSB 0  
SHELBYVILLE FOG 59 59 100 CALM 30.19S VSB 0  
TULLAHOMA FOG 61 61 100 CALM 30.19S VSB 0  
WINCHESTER CLOUDY 61 61 100 CALM 30.19S  

 
 
   
..KEY TO REMARKS
 
 
VSB - VISIBILITY IN MILES  
WCI - WIND CHILL INDEX  
HX - HEAT INDEX  
 
 
 
CLICK HERE TO GO TO PREVIOUS BULLETINS.

The Nexlab TN Page Main Text Page